Location: Asheville, NC
(35.6000°N, 82.5500°W)
Time: 14:50:57
(UTC-05:00)

AO-7 - Pass Details

Date: 10 January 2018
Orbit: 1440 x 1458 km, 101.7° (Epoch: 17 January)

Event Time Altitude Azimuth Distance (km) Brightness Sun altitude
Rises 03:04:48 0° 27° (NNE) 4,568 ? -55.2°
Reaches altitude 10° 03:08:02 10° 37° (NE) 3,585 ? -54.6°
Enters shadow 03:10:39 20° 50° (NE) 2,890 ? -54.1°
